Flag for France Weather past 2 weeks in Strasbourg, France

Now
72 °F

Passing clouds.


Feels Like: 76 °F
Forecast: 58 / 85 °F
Wind: 8 mph from South

Location: Strasbourg Airport

Current Time: Aug 1, 2015 at 8:56:11 PM

Latest Report: Aug 1, 2015 at 8:00 PM


Visibility: N/A

Pressure: 29.98 "Hg

Humidity: 61%

Dew point: 57 °F

Location of StrasbourgLocation

Historic Weather in Strasbourg — Graph

°F

Strasbourg temperature yesterday

Maximum temperature yesterday: 75 °F (at 4:00 PM)
Minimum temperature yesterday: 46 °F (at 5:00 AM)
Average temperature yesterday: 62 °F

Past Weeks' High & Low Weather Summary

 TemperatureHumidityPressure
High95 °F (Jul 17, 8:00 PM)94% (Jul 18, 5:30 AM)30.12 "Hg (Jul 18, 5:30 AM)
Low46 °F (Jul 31, 5:00 AM)29% (Jul 24, 4:30 PM)29.65 "Hg (Jul 24, 8:00 PM)
Average71 °F60%29.93 "Hg
* Reported Jul 17 8:00 PM — Aug 1 8:00 PM, Strasbourg, Weather by CustomWeather, © 2015

Note: Actual official high and low records may vary slightly from our data, if they occured in-between our weather recording intervals... More about our weather records

Advertising

Strasbourg weather history for previous 24 hours

 ConditionsComfort  
Time TempWeatherWind HumidityBarometerVisibility
8:00 PM
Sat, Aug 1
72 °FPassing clouds.8 mph61%29.98 "HgN/A
7:30 PM72 °FPassing clouds.8 mph61%29.98 "HgN/A
7:00 PM72 °FMild.7 mph57%29.98 "HgN/A
6:30 PM72 °FPassing clouds.7 mph57%29.98 "HgN/A
6:00 PM72 °FLight rain. Mostly cloudy.6 mph61%29.98 "HgN/A
5:00 PM75 °FMild.8 mph47%29.98 "HgN/A
4:30 PM75 °FPassing clouds.7 mph47%29.98 "HgN/A
4:00 PM75 °FPassing clouds.6 mph47%29.95 "HgN/A
3:30 PM77 °FPartly sunny.6 mph44%29.98 "HgN/A
3:00 PM77 °FPassing clouds.8 mph44%29.95 "HgN/A
2:30 PM77 °FPassing clouds.6 mph44%29.95 "HgN/A
2:00 PM77 °FSunny.3 mph42%29.95 "Hg10 mi
1:30 PM75 °FSunny.5 mph47%29.95 "Hg10 mi
1:00 PM75 °FSunny.7 mph54%29.95 "Hg10 mi
12:30 PM72 °FPassing clouds.5 mph57%29.98 "HgN/A
12:00 PM68 °FPassing clouds.9 mph60%29.98 "HgN/A
11:30 AM68 °FPassing clouds.8 mph56%29.98 "HgN/A
11:00 AM66 °FPassing clouds.6 mph56%29.98 "HgN/A
10:30 AM64 °FPartly sunny.2 mph56%29.98 "HgN/A
10:00 AM64 °FPassing clouds.5 mph52%29.98 "HgN/A
9:30 AM63 °FSunny.3 mph56%29.98 "Hg10 mi
9:00 AM61 °FSunny.6 mph63%29.95 "Hg10 mi
8:30 AM61 °FSunny.No wind63%29.95 "Hg10 mi
8:00 AM61 °FSunny.No wind59%29.95 "Hg10 mi
7:30 AM59 °FSunny.3 mph68%29.92 "Hg10 mi
7:00 AM59 °FClear.3 mph68%29.92 "Hg10 mi
6:30 AM59 °FClear.5 mph68%29.92 "Hg10 mi
6:00 AM57 °FClear.5 mph67%29.92 "Hg10 mi
5:30 AM57 °FClear.5 mph67%29.89 "Hg10 mi
5:00 AM57 °FClear.5 mph72%29.89 "Hg10 mi
4:30 AM57 °FClear.5 mph67%29.89 "Hg10 mi
4:00 AM55 °FPassing clouds.3 mph77%29.89 "HgN/A
3:30 AM55 °FClear.3 mph77%29.89 "Hg10 mi
3:00 AM57 °FClear.6 mph67%29.89 "Hg10 mi
2:30 AM59 °FClear.5 mph63%29.89 "Hg10 mi
2:00 AM59 °FClear.6 mph63%29.92 "Hg10 mi
1:30 AM63 °FClear.5 mph56%29.92 "Hg10 mi
1:00 AM63 °FClear.6 mph56%29.92 "Hg10 mi
12:30 AM64 °FPassing clouds.5 mph52%29.92 "HgN/A
11:30 PM
Fri, Jul 31
64 °FClear.6 mph49%29.92 "Hg10 mi
11:00 PM64 °FClear.6 mph52%29.92 "Hg10 mi
10:30 PM66 °FPassing clouds.7 mph46%29.92 "HgN/A
10:00 PM68 °FSunny.8 mph43%29.92 "Hg10 mi
9:30 PM68 °FSunny.9 mph43%29.92 "Hg10 mi
9:00 PM70 °FPartly sunny.12 mph38%29.92 "HgN/A
8:30 PM72 °FSunny.14 mph38%29.92 "Hg10 mi
8:00 PM72 °FPassing clouds.14 mph38%29.92 "HgN/A
Weather by CustomWeather, © 2015

See weather overviewHow to use our weather pages